Change the Weather History Date:

Sunday, March 23, 2014

  Actual Average Record
Temperature  
Mean Temperature 42 °F -  
Max Temperature 50 °F - - ()
Min Temperature 33 °F - - ()
Degree Days  
Heating Degree Days 24    
Moisture  
Dew Point 37 °F    
Average Humidity 85    
Maximum Humidity 100    
Minimum Humidity 54    
Precipitation  
Precipitation 0.00 in - - ()
Sea Level Pressure  
Sea Level Pressure 29.58 in    
Wind  
Wind Speed 6 mph ()    
Max Wind Speed 14 mph    
Max Gust Speed -    
Visibility 4.6 miles    
Events Fog , Rain , Snow    
T = Trace of Precipitation, MM = Missing Value Source: Averaged Metar Reports

Daily Weather History Graph

Daily Weather History Graph

Search for Another Location

Airport or City:

Trip Planner

Search our weather history database for the weather conditions in past years. The results will help you decide how hot, cold, wet, or windy it might be!

Date:

Astronomy

Mar. 23, 2014 Rise Set
Actual Time 5:49 AM CET 6:14 PM CET
Civil Twilight 5:11 AM CET 6:52 PM CET
Nautical Twilight 4:25 AM CET 7:38 PM CET
Astronomical Twilight 3:37 AM CET 8:27 PM CET
Moon 1:11 AM CET (3/23) 9:15 AM CET (3/23)
Length of Visible Light 13h 41m
Length of Day
12h 25m
Waning Gibbous, 57% of the Moon is Illuminated
Mar 23
Waning Gibbous
Mar 24
Last Quarter
Mar 30
New
Apr 7
First Quarter
Apr 15
Full

Hourly Weather History & Observations

Time (CET) Temp. Windchill Dew Point Humidity Pressure Visibility Wind Dir Wind Speed Gust Speed Precip Events Conditions
12:20 AM 33.8 °F 29.6 °F 33.8 °F 100% 29.50 in 0.1 mi SE 4.6 mph - N/A Fog Patches of Fog
12:50 AM 33.8 °F 28.6 °F 33.8 °F 100% 29.50 in 1.6 mi SSE 5.8 mph - N/A   Mostly Cloudy
1:20 AM 35.6 °F 29.9 °F 35.6 °F 100% 29.50 in 1.7 mi South 6.9 mph - N/A   Overcast
1:50 AM 37.4 °F 32.8 °F 37.4 °F 100% 29.47 in - South 5.8 mph - N/A   Partly Cloudy
2:20 AM 37.4 °F 33.8 °F 37.4 °F 100% 29.47 in - South 4.6 mph - N/A   Partly Cloudy
2:50 AM 35.6 °F 31.7 °F 35.6 °F 100% 29.47 in 0.8 mi South 4.6 mph - N/A   Scattered Clouds
3:20 AM 37.4 °F 32.8 °F 37.4 °F 100% 29.47 in 1.4 mi West 5.8 mph - N/A   Overcast
3:50 AM 37.4 °F 32.8 °F 37.4 °F 100% 29.47 in - West 5.8 mph - N/A Rain Light Rain
4:20 AM 39.2 °F 37.0 °F 39.2 °F 100% 29.47 in 4.3 mi NW 3.5 mph - N/A   Light Drizzle
4:50 AM 39.2 °F 35.0 °F 39.2 °F 100% 29.50 in 3.1 mi WSW 5.8 mph - N/A   Unknown
5:20 AM 39.2 °F 37.0 °F 37.4 °F 93% 29.50 in 4.3 mi WSW 3.5 mph - N/A Rain Light Rain
5:50 AM 39.2 °F 37.0 °F 37.4 °F 93% 29.50 in 3.7 mi Variable 3.5 mph - N/A Snow Snow Grains
6:20 AM 39.2 °F 37.0 °F 37.4 °F 93% 29.50 in 4.3 mi South 3.5 mph - N/A   Mostly Cloudy
6:50 AM 37.4 °F 33.8 °F 37.4 °F 100% 29.50 in 4.3 mi SW 4.6 mph - N/A   Partly Cloudy
7:20 AM 39.2 °F 35.9 °F 37.4 °F 93% 29.50 in 3.7 mi SSW 4.6 mph - N/A   Mist
7:50 AM 39.2 °F 35.9 °F 37.4 °F 93% 29.53 in 6.2 mi SW 4.6 mph - N/A   Unknown
8:20 AM 39.2 °F 35.0 °F 37.4 °F 93% 29.53 in 6.2 mi SW 5.8 mph - N/A   Unknown
8:50 AM 41.0 °F 35.8 °F 39.2 °F 93% 29.56 in 6.2 mi WSW 8.1 mph - N/A   Scattered Clouds
9:20 AM 41.0 °F 34.3 °F 39.2 °F 93% 29.56 in 6.2 mi West 11.5 mph - N/A   Mostly Cloudy
9:50 AM 41.0 °F 35.8 °F 37.4 °F 87% 29.56 in 6.2 mi WSW 8.1 mph - N/A   Scattered Clouds
10:20 AM 42.8 °F 36.6 °F 37.4 °F 81% 29.56 in 6.2 mi WSW 11.5 mph - N/A   Partly Cloudy
10:50 AM 44.6 °F 38.8 °F 39.2 °F 81% 29.56 in 6.2 mi SW 11.5 mph - N/A   Partly Cloudy
11:20 AM 44.6 °F 38.4 °F 37.4 °F 76% 29.59 in 6.2 mi SW 12.7 mph - N/A   Scattered Clouds
11:50 AM 46.4 °F 41.9 °F 37.4 °F 71% 29.59 in 6.2 mi SSW 9.2 mph - N/A   Mostly Cloudy
12:20 PM 48.2 °F - 37.4 °F 66% 29.59 in 6.2 mi SW 10.4 mph - N/A   Scattered Clouds
12:50 PM 48.2 °F - 35.6 °F 62% 29.59 in 6.2 mi SW 11.5 mph - N/A   Mostly Cloudy
1:20 PM 48.2 °F - 32.0 °F 54% 29.59 in 6.2 mi West 13.8 mph - N/A   Mostly Cloudy
1:50 PM 50.0 °F - 35.6 °F 58% 29.59 in 6.2 mi SW 12.7 mph - N/A   Partly Cloudy
2:20 PM 48.2 °F - 33.8 °F 58% 29.59 in 6.2 mi WSW 12.7 mph - N/A   Partly Cloudy
2:50 PM 48.2 °F - 33.8 °F 58% 29.59 in - WSW 13.8 mph - N/A   Clear
3:20 PM 50.0 °F - 35.6 °F 58% 29.59 in 6.2 mi SW 11.5 mph - N/A   Partly Cloudy
3:50 PM 48.2 °F - 35.6 °F 62% 29.62 in 6.2 mi WSW 10.4 mph - N/A   Partly Cloudy
4:20 PM 48.2 °F - 35.6 °F 62% 29.62 in 6.2 mi SW 10.4 mph - N/A   Partly Cloudy
4:50 PM 48.2 °F - 35.6 °F 62% 29.62 in - SW 9.2 mph - N/A   Clear
5:20 PM 48.2 °F - 35.6 °F 62% 29.62 in - SW 8.1 mph - N/A   Clear
5:50 PM 46.4 °F 42.4 °F 37.4 °F 71% 29.65 in - SW 8.1 mph - N/A   Clear
6:20 PM 44.6 °F 41.4 °F 37.4 °F 76% 29.65 in - SSW 5.8 mph - N/A   Clear
6:50 PM 42.8 °F 39.3 °F 37.4 °F 81% 29.65 in - South 5.8 mph - N/A   Clear
7:20 PM 41.0 °F 37.1 °F 37.4 °F 87% 29.68 in - SSW 5.8 mph - N/A   Clear
7:50 PM 41.0 °F 37.1 °F 37.4 °F 87% 29.68 in - SSW 5.8 mph - N/A   Clear
8:20 PM 41.0 °F 37.1 °F 37.4 °F 87% 29.68 in - SSW 5.8 mph - N/A   Clear
8:50 PM 39.2 °F 35.0 °F 37.4 °F 93% 29.68 in - SW 5.8 mph - N/A   Clear
9:20 PM 39.2 °F 35.0 °F 37.4 °F 93% 29.71 in - SW 5.8 mph - N/A   Clear
9:50 PM 37.4 °F 33.8 °F 37.4 °F 100% 29.71 in 4.3 mi South 4.6 mph - N/A   Mist
10:20 PM 37.4 °F 34.9 °F 35.6 °F 93% 29.71 in 4.3 mi South 3.5 mph - N/A   Mist
10:50 PM 37.4 °F 34.9 °F 35.6 °F 93% 29.71 in 3.7 mi SW 3.5 mph - N/A   Mist
11:20 PM 37.4 °F 34.9 °F 35.6 °F 93% 29.71 in - SW 3.5 mph - N/A   Mist
11:50 PM 33.8 °F - 33.8 °F 100% 29.71 in 1.1 mi South 2.3 mph - N/A   Mist